Wind_Speed
65 63 61 59 56 56 57 58 57 55 54 55 57 57 56 54 52 51 47 43 40 40 41 41 41 41 41 41 39 37 37 35 34 32 32 32 33 35 36 37 37 36 34 35 39 43 47 52 55 58 59 58 56 55 53 51 49 47 44 42 41 40 40 39 39 38 39 39 40 42 45 47 49 50 51 52 54 56 58 60 63 65 66 67 67
62 62 61 58 56 57 58 57 55 51 48 49 52 53 53 51 51 50 46 42 41 41 42 41 41 41 41 40 38 37 36 33 32 32 33 33 33 33 35 36 38 39 39 40 44 47 50 54 56 57 58 56 55 54 52 49 47 44 42 40 38 37 38 38 37 38 40 42 44 46 48 49 50 51 53 55 57 59 61 63 65 66 67 67 67
59 60 60 58 56 56 56 56 55 52 48 48 50 49 50 51 50 49 45 43 43 42 41 40 38 39 39 38 36 36 35 32 32 33 32 31 32 34 37 39 42 44 45 46 48 50 53 55 56 57 56 55 55 53 50 48 46 43 40 39 37 37 38 39 40 41 44 45 46 48 49 50 51 52 55 57 60 62 64 65 66 66 66 67 67
59 59 57 57 58 56 55 56 56 55 52 50 52 51 50 52 51 48 45 44 44 42 42 41 40 40 40 39 38 36 34 33 33 34 34 34 36 39 41 44 46 48 49 50 51 53 55 56 55 55 55 56 55 52 49 47 44 42 40 39 39 39 40 42 43 44 45 46 47 49 50 52 54 55 58 60 62 64 65 65 65 66 66 67 67
59 59 55 57 61 59 56 58 58 58 57 56 58 56 54 54 51 48 46 45 44 43 43 44 44 44 43 43 43 39 35 35 36 37 39 41 42 44 46 47 48 50 51 52 53 55 56 55 54 56 56 55 53 50 48 46 43 42 41 40 41 42 43 44 44 45 46 46 47 49 51 54 57 59 61 63 64 64 64 64 65 65 66 66 66
58 58 55 57 63 61 57 59 60 61 61 61 62 59 56 55 51 48 46 45 45 45 45 45 45 44 43 44 44 42 39 40 41 42 42 43 45 47 48 49 50 50 51 52 54 56 54 54 55 56 56 55 52 49 47 44 42 41 41 41 42 42 43 44 44 45 46 47 48 50 52 56 58 60 61 62 63 64 64 63 64 65 66 65 66
57 59 56 58 62 60 57 58 61 62 62 62 62 59 57 54 51 48 47 46 45 45 45 44 42 42 42 43 45 45 46 46 44 43 43 44 45 47 48 49 50 50 50 53 56 54 52 53 55 56 56 55 50 47 45 43 41 41 40 41 41 42 43 44 45 46 47 49 51 53 55 57 58 58 59 60 62 63 64 63 64 65 65 65 66
58 58 57 59 62 58 56 57 58 59 60 60 59 57 56 54 51 49 47 45 44 44 45 44 44 44 45 47 48 49 50 50 49 48 48 48 48 49 50 50 50 50 53 57 58 54 53 54 56 57 56 52 47 45 44 42 41 41 41 41 42 43 44 45 46 48 50 52 54 56 56 57 57 57 58 59 60 61 63 64 64 64 65 64 64
60 60 59 60 61 58 57 56 55 56 57 58 57 55 55 53 52 50 49 48 48 47 48 48 48 49 50 50 51 51 51 51 52 54 53 53 53 52 52 53 53 54 57 60 59 56 55 56 57 58 55 50 46 45 43 42 42 41 42 42 43 44 45 47 49 51 53 54 56 57 57 57 57 58 59 59 58 58 60 62 64 64 66 65 62
62 62 61 61 60 59 59 58 56 56 58 57 55 54 54 53 53 51 50 50 51 51 51 51 51 52 52 51 51 52 52 52 53 54 54 53 54 54 55 56 57 57 59 61 58 55 55 57 59 57 53 49 46 44 43 42 42 42 43 44 44 46 48 49 51 53 54 56 57 57 57 57 58 59 59 59 58 58 58 59 61 62 64 64 63
64 63 63 62 60 60 60 60 58 57 58 56 54 55 54 54 53 52 52 52 52 52 51 52 53 53 53 53 53 54 53 53 53 54 54 53 54 55 56 57 58 58 60 58 55 55 57 59 59 56 52 49 46 44 44 43 43 43 44 45 46 48 49 51 53 54 55 56 57 57 57 58 58 59 59 58 59 60 59 59 60 61 60 60 61
66 63 63 61 60 61 61 60 59 59 59 57 56 56 55 54 54 53 53 53 53 53 53 54 55 55 54 54 54 54 53 53 53 53 53 54 54 55 56 57 58 58 58 56 55 57 59 60 58 55 52 49 46 45 45 44 43 44 45 47 48 49 51 52 54 55 56 56 57 57 57 58 58 58 58 59 60 61 61 62 62 62 59 57 58
67 64 62 59 58 59 61 61 60 60 61 59 57 57 56 55 55 54 54 54 54 54 55 56 56 55 55 54 54 54 53 53 53 54 54 55 55 56 57 57 58 58 57 56 57 59 61 60 57 54 51 49 47 46 45 44 44 45 47 48 50 51 52 53 54 55 55 56 57 57 57 57 57 58 59 60 60 61 63 64 63 62 61 60 58
69 65 62 59 57 55 57 58 58 60 61 58 56 56 56 55 55 55 55 55 55 55 56 56 56 55 54 54 54 53 53 54 54 55 56 56 56 57 57 57 57 58 57 56 59 62 62 59 56 53 51 49 47 46 45 45 46 47 49 50 52 52 53 54 55 55 55 56 57 57 57 57 58 58 59 59 61 62 63 64 63 62 62 63 63
67 65 60 58 59 57 56 54 54 58 58 55 55 55 55 55 54 55 55 56 55 55 55 55 55 54 54 53 53 54 54 55 55 56 57 57 57 57 57 57 58 58 57 58 61 62 60 57 55 52 50 48 47 46 46 46 47 49 51 52 52 53 53 54 55 55 56 56 57 57 57 58 58 58 58 59 61 63 63 63 64 64 64 65 66
64 64 61 59 60 60 58 53 52 55 55 53 54 55 55 55 55 56 56 56 56 55 54 54 54 54 54 54 54 55 56 56 56 57 58 58 58 58 59 60 60 59 59 60 61 60 57 55 53 51 49 48 47 46 47 48 49 50 52 52 53 53 54 54 55 56 57 56 57 57 58 57 56 57 58 61 62 63 63 64 65 65 65 65 67
61 63 63 63 64 63 60 56 55 57 56 54 54 55 56 57 57 57 57 57 56 54 54 54 55 55 55 55 56 56 57 57 58 59 60 60 60 60 61 60 60 59 59 58 57 56 55 53 51 49 48 47 47 47 48 49 50 51 52 52 53 54 54 54 55 56 57 57 57 57 56 55 56 57 59 61 63 64 64 65 66 66 66 66 67
58 58 59 62 64 63 60 57 57 59 58 56 54 55 57 57 58 58 57 58 57 55 55 56 57 56 57 58 57 58 58 59 60 61 61 62 61 61 60 59 58 57 56 55 55 54 53 51 50 49 48 47 47 48 49 50 51 51 52 53 54 54 54 55 55 56 56 57 57 56 55 55 56 59 61 62 64 65 66 66 67 67 67 67 68
57 56 57 62 65 66 64 61 60 58 58 58 58 58 59 59 59 58 57 56 56 57 57 58 59 59 59 60 59 60 60 61 61 61 62 61 60 59 57 56 55 54 53 53 53 52 51 50 49 48 47 48 48 49 50 51 51 52 53 54 54 54 54 54 55 56 56 57 56 56 56 57 58 60 62 64 65 66 67 67 68 68 67 68 70
55 55 57 61 63 65 66 64 62 59 58 59 59 59 61 62 62 60 57 57 58 60 60 60 60 60 61 61 61 61 61 61 61 60 59 58 57 56 55 54 53 52 52 52 51 50 49 48 48 47 48 48 49 50 50 50 51 52 53 53 53 53 53 54 55 56 56 56 57 58 58 59 60 62 63 65 66 67 68 68 69 68 68 69 71
52 52 58 63 64 64 64 64 64 63 61 61 61 61 63 64 64 62 60 59 60 61 61 61 61 61 61 61 61 60 60 59 58 57 56 55 54 53 52 52 51 51 51 50 49 49 48 47 47 47 48 49 49 50 50 51 52 52 52 52 53 53 53 55 55 56 56 57 58 59 60 61 62 63 65 66 67 68 69 70 70 69 70 71 72
50 50 57 63 65 64 63 63 63 63 63 63 63 62 61 60 61 61 59 58 58 59 60 59 59 60 59 59 58 58 57 56 55 54 53 52 52 51 50 50 50 49 49 48 48 47 47 47 47 47 48 48 49 49 50 51 51 51 52 52 52 53 54 55 56 56 57 58 59 60 61 62 64 65 66 67 68 69 70 71 70 70 71 72 74
47 48 52 57 59 59 59 59 61 62 62 60 59 59 60 60 60 60 58 56 57 58 58 57 57 57 56 56 55 55 54 54 53 52 51 50 50 49 49 49 49 48 48 47 47 46 46 46 47 47 47 48 48 49 50 50 50 51 51 52 52 53 55 56 57 58 59 60 60 61 62 64 65 66 67 68 69 70 71 71 70 71 72 74 75
51 52 54 53 54 56 55 55 58 60 60 60 59 60 61 61 60 59 57 57 57 57 57 56 56 55 54 54 53 53 52 52 51 50 49 49 48 48 48 48 48 47 47 46 46 46 46 46 46 46 47 47 48 49 49 49 49 49 51 52 53 54 56 57 59 60 61 61 62 63 64 65 66 67 68 69 70 71 71 71 70 71 73 75 75
54 56 56 53 52 53 53 53 54 58 60 61 61 60 60 59 59 58 57 56 56 56 55 54 54 53 52 52 51 51 50 50 49 48 47 47 47 47 47 47 47 46 46 45 45 45 45 45 45 45 46 47 47 47 48 48 48 50 51 53 53 55 57 58 60 61 61 62 63 64 65 66 67 68 69 70 71 71 71 70 71 72 74 75 76
48 50 53 52 51 51 52 52 53 55 57 58 57 56 55 56 56 56 56 54 54 53 52 52 52 51 50 50 50 49 48 48 47 47 46 45 46 46 47 46 46 46 45 44 44 44 43 43 44 45 46 46 46 47 48 48 49 51 53 53 55 57 59 60 61 62 62 63 64 65 66 67 68 69 70 71 71 70 70 70 71 73 75 76 77
49 48 48 49 50 51 50 49 49 49 50 51 51 51 52 53 53 54 53 52 51 50 50 50 50 49 49 48 48 47 47 47 46 46 45 45 45 46 46 46 46 45 44 43 43 43 42 42 43 43 43 44 45 47 49 49 50 52 54 55 57 58 60 60 61 62 63 64 64 66 67 68 69 70 70 70 70 70 70 71 72 74 75 76 77
54 49 49 51 51 52 50 47 47 47 47 48 49 49 50 51 52 51 50 50 50 49 48 49 49 48 47 47 47 46 46 46 46 45 44 44 45 46 45 45 45 44 43 42 42 42 42 41 41 41 41 43 45 48 50 51 52 53 56 58 59 60 61 62 62 63 64 64 65 66 67 68 69 70 70 70 70 70 71 72 73 75 75 77 79
57 53 54 55 54 56 56 54 54 54 51 49 48 47 48 50 50 50 49 50 49 49 48 48 48 48 47 47 47 46 46 46 46 45 44 44 44 45 45 45 44 43 42 42 42 42 41 40 40 40 41 43 47 50 52 54 55 55 57 60 62 64 64 64 64 64 64 65 66 67 68 68 69 69 69 69 70 71 72 73 74 75 76 78 80
54 53 53 53 53 54 55 56 57 58 57 54 50 48 48 50 51 50 50 50 50 49 48 48 49 48 47 47 47 46 46 46 45 45 44 43 43 44 45 44 44 43 42 42 42 41 40 39 40 41 41 43 49 52 53 54 55 56 58 60 62 63 64 63 64 64 64 65 66 67 68 68 69 69 69 70 70 72 73 74 75 76 77 79 81
55 53 51 49 50 50 49 48 50 54 56 56 55 53 53 53 52 51 51 51 51 51 50 49 50 49 48 48 48 47 46 45 45 45 43 42 43 44 45 44 44 43 42 43 42 41 40 40 41 43 44 46 49 51 51 53 54 56 57 58 60 61 62 63 63 63 64 65 66 67 68 68 68 69 69 70 71 73 74 75 76 77 78 80 81
58 54 50 47 47 49 50 49 48 49 51 52 54 55 54 52 51 51 51 52 52 51 51 50 51 51 50 49 48 47 46 46 45 44 43 43 43 44 45 45 44 43 43 44 43 42 42 41 41 41 44 47 49 49 50 52 53 54 55 57 59 60 61 62 63 63 64 66 67 68 68 68 69 69 70 71 72 73 74 75 77 78 80 81 82
53 48 44 45 48 51 53 50 47 48 49 49 50 51 51 51 51 51 51 52 52 52 51 51 51 52 51 50 49 48 47 46 46 45 43 43 44 45 45 45 45 44 44 44 44 43 42 42 42 41 43 47 49 49 50 51 52 54 55 57 59 60 61 62 62 63 65 66 67 67 68 68 69 70 70 71 72 73 75 76 77 79 80 82 84
52 48 46 47 50 53 53 50 48 49 49 48 49 50 50 51 51 51 51 52 51 51 51 51 51 52 51 50 49 48 47 47 47 46 44 44 45 46 46 46 46 45 45 45 45 44 44 44 43 42 43 46 48 49 50 51 52 54 55 57 59 60 61 62 62 63 65 66 67 67 68 69 69 70 70 71 73 74 75 76 77 79 81 83 85
52 52 52 52 52 53 54 53 53 54 52 51 52 52 51 51 51 51 51 51 50 50 50 50 51 51 50 49 49 49 48 48 47 46 44 45 46 47 47 47 46 46 46 46 46 45 45 44 44 43 44 47 48 49 50 52 53 54 55 58 59 60 60 61 62 64 65 66 67 67 68 69 69 70 71 72 73 74 75 76 78 79 81 83 85
55 53 54 55 56 57 57 56 57 57 56 56 56 53 50 50 51 51 51 50 49 48 49 49 50 50 49 49 49 49 49 49 48 46 45 46 46 47 47 47 47 46 46 46 46 45 45 45 45 45 46 48 48 49 51 53 53 55 56 58 59 59 60 61 63 65 66 66 67 67 68 69 69 70 71 72 73 75 76 77 78 80 82 84 86
60 57 55 56 57 57 57 58 58 59 59 59 58 54 51 51 52 52 51 50 49 49 49 49 49 48 48 48 48 49 49 49 47 46 46 47 47 47 48 47 46 46 45 45 46 46 46 46 46 46 47 49 49 50 52 53 54 56 57 58 59 59 60 62 64 65 66 66 67 68 68 69 70 71 72 73 74 75 76 77 79 81 82 84 86
62 61 59 58 58 59 61 62 62 61 60 58 56 55 53 52 53 53 52 51 51 50 49 49 49 48 48 47 47 48 48 48 47 47 47 47 47 48 48 48 47 47 46 46 46 46 46 46 46 47 48 50 50 51 53 54 55 57 58 59 59 60 61 63 65 66 67 67 67 68 69 69 70 71 72 73 74 76 77 78 80 81 83 85 86
61 61 61 60 61 63 64 64 63 61 59 57 55 54 53 53 53 53 53 52 52 51 51 50 49 49 48 47 47 48 47 47 47 47 47 48 48 48 48 48 48 48 48 47 47 46 46 47 47 48 50 52 51 51 53 54 56 59 59 59 60 61 62 64 65 66 67 67 68 68 69 69 70 71 72 73 75 76 78 79 80 82 84 85 83
60 60 60 61 63 64 65 64 61 60 59 57 55 54 53 53 53 54 54 54 53 52 51 50 50 49 49 48 47 47 47 46 46 47 47 48 48 49 49 49 49 49 48 47 47 46 46 47 47 49 52 53 52 51 53 54 57 60 61 60 61 62 63 65 66 67 68 68 68 69 69 70 71 71 72 74 76 77 78 80 81 83 84 83 81
58 58 59 62 63 63 62 61 60 60 60 58 57 55 54 53 54 55 55 54 53 52 52 51 51 50 49 48 48 47 47 46 46 47 47 48 49 49 49 49 49 49 48 48 46 45 46 47 49 52 54 54 53 53 54 55 57 61 64 63 63 64 65 66 67 67 68 69 69 69 69 70 71 72 73 75 76 78 79 80 81 83 82 80 78
58 57 57 60 61 61 60 60 60 61 61 60 58 57 55 53 54 55 55 54 54 53 53 52 51 50 50 49 48 47 47 46 47 47 47 48 49 49 50 50 49 48 49 48 46 45 46 48 49 52 55 55 55 56 56 57 58 61 64 64 65 66 67 67 68 68 69 69 69 69 69 70 71 72 74 75 77 78 79 80 81 82 80 78 75
58 59 58 58 59 59 59 59 59 59 60 59 58 56 55 54 55 55 55 54 54 54 53 53 52 51 51 50 49 48 47 47 47 47 48 49 49 50 50 49 49 48 48 47 45 46 48 50 50 52 54 56 57 57 58 59 60 62 63 64 66 66 67 68 68 69 69 68 69 69 69 70 72 73 75 76 77 78 79 80 81 80 78 75 72
59 60 61 61 60 59 59 58 58 58 58 58 56 56 56 56 56 55 55 55 55 55 54 53 52 52 51 50 49 49 48 48 48 48 49 49 50 50 50 49 48 49 48 47 46 46 48 51 52 53 55 56 58 58 59 60 62 63 64 65 66 67 68 68 68 68 68 68 69 69 70 71 73 74 75 76 77 78 80 80 80 78 75 73 69
58 60 62 63 63 61 60 59 58 57 57 56 56 56 57 56 56 55 55 56 56 55 55 54 53 53 52 51 50 49 48 48 49 49 50 50 50 51 50 49 49 49 48 47 46 46 47 50 52 53 55 57 58 58 60 62 63 63 64 66 67 67 68 68 68 67 67 68 69 70 71 72 73 74 75 77 78 79 80 80 78 75 73 70 66
58 61 63 63 63 63 61 59 59 58 57 57 57 57 57 56 56 56 56 56 55 55 55 55 54 53 53 52 51 50 49 49 49 50 50 51 51 51 50 49 49 50 49 47 47 47 48 50 52 54 56 57 58 59 60 62 63 64 65 66 67 68 68 68 67 66 66 67 69 71 72 73 74 74 76 77 78 80 80 78 76 73 71 67 63
60 62 65 64 63 63 61 59 58 58 57 57 57 57 57 56 56 56 56 55 55 55 55 55 54 54 53 53 52 51 50 50 50 51 51 51 52 51 50 50 50 50 49 48 48 48 49 52 54 56 57 58 58 59 61 62 63 64 66 67 68 69 68 67 66 66 66 68 70 71 73 74 74 75 76 77 79 80 79 76 73 72 69 65 61
62 62 64 64 63 62 60 58 58 58 57 57 57 57 57 57 57 57 56 55 55 55 55 55 55 54 53 53 52 51 51 51 51 52 52 52 52 51 50 50 51 50 49 49 49 49 51 54 56 57 58 59 59 60 61 62 63 65 67 68 69 68 67 66 65 66 67 69 70 72 73 74 74 75 76 78 80 80 78 74 72 70 66 62 60
68 66 64 62 61 60 59 58 59 59 59 59 59 58 58 57 57 57 55 55 56 56 55 56 56 55 54 53 52 51 51 51 52 53 53 53 52 50 50 51 51 51 51 50 50 51 53 55 56 58 59 59 60 61 62 63 64 66 68 69 68 68 67 66 65 66 68 69 71 72 73 74 75 75 76 78 79 79 76 72 70 67 63 60 59
73 72 68 63 61 61 61 61 60 59 58 58 59 60 59 59 57 56 55 56 57 57 56 56 56 55 54 53 52 51 51 52 52 53 53 53 52 51 51 52 52 52 52 51 51 53 55 56 57 58 59 60 60 61 63 64 65 67 68 69 68 67 66 66 66 67 69 70 71 72 73 74 75 76 77 78 78 76 73 71 68 65 61 59 58
74 75 71 66 63 63 63 62 62 61 58 54 52 52 54 55 55 55 55 57 58 58 58 58 57 56 55 53 52 52 53 53 53 53 53 52 52 51 51 52 52 52 52 52 53 55 56 57 58 58 60 61 61 62 64 65 66 67 68 68 68 67 66 66 67 68 69 70 71 72 73 74 75 76 77 77 76 74 71 69 66 62 60 58 57
Wind_Direction
247 248 248 249 250 252 255 259 263 265 267 268 269 269 271 271 270 270 272 276 277 277 278 279 279 278 279 280 282 283 283 285 286 287 287 290 292 291 287 287 289 290 288 288 289 292 294 296 297 300 303 306 309 310 310 308 305 301 297 294 293 293 295 296 296 297 297 298 299 299 299 300 302 303 304 305 306 305 304 303 302 302 301 301 302
248 250 250 250 249 250 254 257 260 262 267 269 268 267 266 267 267 268 271 274 274 275 277 278 278 278 279 280 282 282 282 282 283 284 286 289 291 290 287 287 289 289 287 286 288 290 292 294 296 299 304 307 310 311 310 307 304 299 295 293 292 293 295 295 295 296 297 299 300 301 302 303 304 305 306 306 305 304 303 302 302 302 302 302 303
247 249 252 252 251 250 253 254 254 257 263 267 266 265 265 265 265 267 270 273 274 275 276 278 278 278 278 279 280 280 279 279 280 282 284 286 285 283 283 283 285 288 289 289 291 293 294 296 298 302 306 309 312 312 310 306 302 297 294 293 292 293 293 294 295 297 299 301 302 303 303 304 305 305 305 304 303 302 302 302 302 303 303 303 305
246 247 250 253 253 252 252 253 253 253 257 261 263 265 265 265 265 267 270 272 274 274 274 274 275 275 277 278 279 279 277 276 277 279 281 281 280 280 281 283 285 288 290 291 292 294 296 298 301 306 309 311 313 311 308 304 300 296 293 292 292 292 294 296 297 299 300 302 303 304 305 305 305 304 304 303 303 303 303 303 304 304 304 305 306
248 247 247 249 250 251 251 252 254 253 253 257 261 264 265 265 265 267 270 272 273 274 272 270 270 271 274 276 276 275 273 272 274 276 278 279 279 280 282 284 286 288 289 291 293 295 297 299 303 308 311 312 312 309 306 302 298 295 293 292 292 293 294 296 298 299 300 301 302 304 304 304 304 304 304 304 304 304 304 304 304 305 306 307 307
248 248 246 246 248 249 249 250 251 252 252 255 259 263 264 264 265 268 271 273 272 272 271 270 269 270 271 273 275 274 274 275 276 277 278 278 279 280 282 284 286 287 289 291 294 295 296 299 305 309 311 312 311 307 303 300 297 295 294 293 294 294 295 296 298 299 300 301 302 302 302 303 303 304 305 305 304 304 304 304 305 306 307 308 308
245 247 246 246 248 249 250 249 249 249 252 254 257 261 263 264 266 269 271 271 270 269 269 269 269 270 270 272 275 277 278 280 280 278 278 279 280 281 282 284 286 287 290 294 296 296 297 301 307 310 311 311 308 304 301 298 296 295 294 294 294 295 296 297 298 299 301 302 302 302 302 303 304 305 305 304 304 305 305 305 306 307 308 309 309
242 245 245 246 248 249 249 249 248 248 251 254 256 259 262 264 266 268 268 268 268 268 268 269 270 270 270 272 274 276 278 279 280 280 280 281 284 285 285 285 287 290 293 297 297 297 299 304 308 310 311 309 306 303 300 297 295 294 294 294 294 295 297 298 300 302 302 302 302 302 303 304 305 305 304 304 305 306 306 307 308 308 308 309 310
240 242 243 245 248 249 248 249 250 251 253 255 257 259 261 263 265 266 266 266 266 267 268 270 271 271 272 273 275 277 277 279 280 281 283 284 286 287 287 287 289 291 294 296 296 297 301 306 309 310 309 307 304 302 299 296 295 294 294 295 296 298 299 301 302 302 302 302 302 304 305 306 306 305 304 305 306 306 307 307 309 310 311 311 312
241 242 243 244 247 248 249 251 253 255 256 256 257 258 260 262 264 266 266 266 267 267 269 271 271 272 273 275 276 277 278 280 281 281 283 285 285 286 287 289 291 293 295 296 295 297 302 306 308 308 306 304 303 300 298 296 295 295 296 297 299 301 301 302 302 302 302 303 304 306 307 307 306 306 307 308 308 308 308 308 309 311 312 313 314
242 242 243 244 247 249 251 253 254 255 255 255 256 258 260 261 263 265 266 267 268 269 270 271 271 272 273 275 276 277 279 280 281 282 284 285 286 287 289 291 292 294 295 294 295 298 303 305 306 306 304 303 302 299 298 296 296 297 299 300 301 302 302 302 302 302 303 305 306 308 308 308 308 308 309 310 309 309 310 311 311 312 312 313 315
242 242 244 245 247 250 252 253 253 253 254 255 257 258 260 261 262 263 265 266 268 269 270 270 271 272 274 275 276 278 279 281 282 283 285 286 287 289 290 291 292 294 293 292 295 299 302 304 305 303 302 302 300 299 298 297 298 300 301 302 302 302 302 303 303 304 305 306 308 309 309 309 310 311 311 311 311 311 312 313 313 313 314 315 315
242 243 244 246 249 252 253 253 253 253 255 256 257 259 260 261 262 263 264 266 267 268 269 269 270 272 273 275 276 278 280 281 282 284 285 287 288 289 290 291 292 293 293 291 295 299 302 303 303 302 301 300 299 299 298 298 300 301 302 303 303 303 303 304 304 305 307 307 308 310 311 312 313 313 313 312 312 313 314 314 314 316 317 317 317
243 244 246 247 249 251 253 253 253 254 256 257 258 259 260 260 261 263 264 265 265 266 267 268 270 272 273 275 277 279 280 281 282 283 285 286 288 289 290 290 291 293 293 292 295 299 301 301 301 300 300 299 299 299 298 300 300 301 302 303 303 304 304 304 305 307 308 309 310 312 313 314 315 314 313 313 313 314 314 314 316 318 319 319 318
244 245 246 246 246 247 250 253 254 254 255 256 257 259 259 260 261 262 262 263 263 264 266 268 270 272 273 275 277 278 279 281 282 283 285 286 287 288 289 290 291 292 292 293 295 298 299 299 299 299 299 299 299 299 299 299 300 301 302 303 304 304 305 306 307 308 309 310 312 314 315 316 315 314 314 313 313 314 314 316 318 319 320 320 319
244 244 244 244 244 245 248 252 253 254 255 255 256 257 258 259 259 260 261 262 263 265 267 269 270 271 273 275 277 278 279 281 282 283 284 285 286 287 288 290 291 291 292 293 295 296 297 297 297 298 298 298 298 298 299 299 299 301 303 303 304 304 306 307 308 309 311 312 314 316 317 316 316 315 314 313 314 315 316 317 319 320 320 320 319
242 243 243 243 246 246 247 249 252 254 255 254 254 256 258 258 258 259 261 263 265 266 268 269 270 272 273 275 276 278 279 281 282 283 284 286 287 288 289 290 290 291 292 294 295 295 295 296 296 297 297 297 297 298 298 298 300 302 302 303 304 306 307 307 309 310 311 313 315 317 318 317 316 315 314 314 315 316 317 318 319 320 320 320 319
241 241 242 243 245 246 246 248 251 252 252 251 252 255 257 258 260 262 263 265 265 267 268 269 271 272 274 275 277 278 280 281 282 283 284 286 287 288 288 290 291 291 292 293 294 294 295 295 296 296 296 296 296 297 298 300 301 302 303 304 305 306 307 308 310 311 312 314 317 318 318 317 316 315 315 315 316 317 317 318 319 320 320 320 319
243 242 242 244 245 246 246 247 249 250 251 251 252 254 256 258 262 264 264 265 266 267 269 270 272 274 275 276 278 279 280 281 282 283 284 285 287 287 288 289 290 291 292 292 293 293 294 295 295 295 295 295 296 297 299 301 302 302 303 304 306 307 308 309 310 311 314 316 317 318 318 318 317 317 316 316 316 316 317 318 319 320 320 320 319
243 240 240 242 244 244 244 244 247 251 254 254 255 256 258 261 263 263 263 265 267 269 271 272 273 275 276 277 278 279 280 281 282 283 284 285 286 287 287 289 290 291 291 292 293 293 294 294 294 294 294 295 296 298 300 301 302 303 303 305 306 308 309 309 311 313 316 317 318 318 318 318 318 317 316 315 316 317 318 319 319 320 320 320 320
244 243 241 241 243 245 245 246 248 252 255 257 259 261 262 262 262 262 264 267 269 270 271 272 274 275 276 278 279 280 281 281 282 283 284 284 285 286 287 288 289 290 291 291 292 292 293 293 292 293 294 295 297 299 300 301 301 302 303 305 307 308 309 310 312 316 318 317 318 318 318 318 318 317 316 316 317 318 318 319 320 320 320 320 319
244 245 244 244 246 249 250 250 251 251 254 258 260 262 263 263 263 264 266 268 269 271 272 273 274 275 277 278 279 279 280 281 281 282 283 283 284 285 287 288 288 289 290 290 291 291 291 291 292 293 294 296 297 298 299 300 301 303 304 306 307 308 309 311 314 317 318 317 317 318 318 317 317 316 316 317 318 318 318 319 319 320 320 320 320
242 242 244 246 249 251 254 254 253 252 254 257 259 261 264 266 267 267 267 269 270 272 273 274 274 275 276 277 278 278 279 280 280 281 282 283 284 285 287 287 288 289 289 289 290 290 291 291 292 293 295 296 297 298 299 300 302 304 305 305 306 307 309 312 315 317 317 317 317 318 318 317 317 317 317 317 318 318 318 319 319 319 319 319 320
245 245 248 249 251 253 256 257 255 253 254 257 260 262 264 266 267 267 269 270 271 273 274 274 274 275 275 276 276 277 278 279 280 281 282 283 284 286 286 287 287 288 288 288 290 290 291 292 293 294 295 296 297 298 300 301 303 304 304 304 305 307 310 313 315 316 316 316 317 317 317 317 317 317 317 317 317 318 318 319 319 318 318 319 320
250 249 250 252 252 253 255 257 256 255 255 258 261 262 263 264 265 267 269 271 272 273 273 273 274 274 275 275 276 277 278 279 280 281 282 283 285 285 286 286 286 287 288 289 290 290 290 292 293 294 295 296 298 299 300 301 302 302 303 304 306 308 311 314 315 315 315 316 316 317 317 317 317 317 317 317 317 318 318 318 318 317 318 319 320
249 250 250 251 251 253 255 257 257 256 257 258 260 261 261 263 265 267 269 271 271 272 272 273 273 274 275 275 276 277 278 279 280 281 282 283 284 285 285 286 286 287 288 289 289 289 290 291 293 295 296 297 297 298 299 300 300 301 303 305 308 310 312 313 313 314 315 315 316 316 316 317 317 317 317 317 317 317 317 317 316 317 318 320 320
247 247 247 246 248 251 253 255 255 255 257 259 260 261 262 264 265 267 268 269 270 270 271 272 273 274 274 276 276 277 278 279 279 280 282 283 284 284 285 286 286 287 288 288 287 287 289 292 294 295 295 296 296 298 298 298 300 302 305 307 309 310 312 312 313 314 314 315 315 316 316 316 316 316 316 317 317 317 316 316 316 317 319 320 320
244 242 243 244 246 249 250 252 256 259 260 260 260 262 263 264 265 266 267 268 269 270 270 272 273 273 275 276 276 277 277 278 279 280 281 282 283 284 285 286 286 287 287 286 286 288 291 293 293 293 294 295 295 296 296 298 302 305 306 307 308 310 312 312 313 314 314 314 315 315 315 314 315 316 317 317 317 316 315 315 316 318 319 319 320
247 244 245 247 247 248 251 255 260 261 260 259 261 263 263 263 265 267 268 269 269 270 270 271 273 273 274 274 275 275 276 277 278 279 280 282 283 285 285 285 285 285 285 285 286 289 291 292 291 292 293 293 293 294 296 299 303 305 305 306 307 309 310 311 312 312 313 314 314 314 314 314 316 316 317 316 316 315 315 316 317 318 319 319 320
249 248 248 250 249 250 253 257 259 258 256 257 261 263 263 265 268 269 269 269 270 270 271 272 272 273 273 274 274 274 275 276 277 278 279 281 283 284 283 283 283 284 284 284 286 289 290 289 290 292 291 289 290 293 296 298 301 302 303 304 304 305 307 309 310 311 312 313 313 313 314 315 316 316 316 316 315 315 316 317 318 318 319 319 320
247 249 252 253 253 253 255 256 257 256 256 258 260 262 264 267 269 269 269 270 270 270 271 271 272 272 272 272 273 274 275 276 277 277 279 281 282 281 281 281 282 283 283 284 287 289 289 290 291 292 290 287 289 293 295 296 298 300 301 302 303 305 307 308 310 311 312 312 312 313 314 315 316 316 315 315 315 316 317 317 318 319 319 320 320
248 252 253 251 251 251 253 256 259 259 260 260 261 263 265 267 268 268 269 269 269 270 270 270 271 271 271 271 272 274 275 275 276 276 278 279 280 279 280 280 281 282 284 286 288 290 290 291 291 290 288 287 290 294 295 296 298 299 301 302 304 306 307 308 310 310 311 312 312 313 314 314 315 314 314 315 315 316 317 318 318 319 319 320 320
247 247 246 245 245 248 252 256 259 260 260 260 261 264 266 267 267 268 268 268 268 269 269 269 270 270 271 271 272 273 274 274 274 275 276 277 278 278 278 279 281 283 285 287 289 290 291 291 290 287 285 288 292 295 295 296 298 300 302 303 304 306 307 308 309 310 310 311 311 312 313 313 313 314 314 315 316 316 317 318 319 319 319 320 320
243 241 240 242 244 248 251 254 255 258 259 260 263 265 267 267 267 267 267 267 268 269 269 269 270 270 271 271 272 272 273 273 273 274 275 276 276 277 278 279 281 283 285 288 289 290 291 291 291 288 287 290 293 294 295 297 299 300 302 304 305 306 307 308 309 309 310 310 311 312 312 312 313 314 315 315 316 316 317 318 318 319 319 320 321
240 239 239 240 245 250 253 254 254 256 258 261 265 266 267 267 268 267 267 268 269 269 270 270 269 270 271 271 271 272 272 272 272 273 273 274 274 276 278 279 281 284 286 288 289 290 292 292 292 291 291 292 294 295 296 297 299 301 303 305 306 306 307 308 308 309 309 310 310 311 311 312 313 314 315 315 316 316 317 318 318 319 319 320 321
236 239 240 243 248 253 255 254 254 254 258 263 266 266 266 267 267 267 268 269 270 270 270 270 269 270 270 270 271 271 271 272 272 273 272 271 273 275 277 279 282 285 286 287 289 290 292 293 293 293 294 294 295 296 296 298 300 302 304 305 306 306 307 308 308 308 309 309 309 310 311 312 313 314 315 315 316 317 317 318 318 319 320 321 321
237 239 242 245 249 252 253 253 253 256 260 263 265 266 266 266 266 266 268 269 270 270 270 270 270 270 270 270 270 270 270 272 273 273 272 271 272 274 276 279 282 284 284 285 288 290 292 293 294 295 295 295 295 296 297 299 301 303 304 305 306 307 307 307 308 308 308 308 309 310 311 312 313 314 315 315 316 317 317 318 318 319 320 321 321
239 240 242 244 246 247 250 252 255 259 262 263 265 265 264 264 265 266 268 268 269 270 270 271 271 270 270 270 269 270 270 271 272 272 271 272 273 274 276 279 281 282 284 286 289 291 292 293 294 295 295 295 295 297 298 300 302 303 304 305 306 307 307 307 307 307 307 308 309 310 311 313 313 314 315 316 316 317 317 318 319 320 321 322 322
242 243 244 245 245 246 249 253 256 259 261 262 264 264 263 264 265 266 267 268 269 270 271 271 271 271 270 270 270 270 270 270 271 270 270 271 272 274 277 279 280 282 285 287 289 291 293 294 295 296 295 294 295 298 300 301 302 302 304 306 306 306 306 306 307 307 308 309 310 310 312 313 313 314 315 316 316 317 318 319 319 320 321 322 322
243 244 245 246 246 247 249 252 255 257 258 260 262 264 264 264 265 266 267 268 269 270 271 272 272 271 271 271 270 270 270 270 269 269 269 270 271 273 276 278 280 283 285 286 289 292 293 295 295 295 293 294 297 299 300 301 302 303 305 306 307 306 307 307 307 308 308 309 310 311 312 313 314 315 315 316 316 317 318 319 320 321 322 322 323
242 244 245 246 246 247 249 251 252 254 256 259 261 263 264 264 264 265 267 268 269 271 271 271 271 271 271 271 271 271 271 270 269 268 268 269 270 272 275 277 280 283 284 286 290 292 293 295 295 294 294 297 300 301 301 302 303 304 305 307 307 307 307 308 308 308 308 309 310 311 313 314 314 315 315 316 316 317 318 319 320 321 322 323 323
240 242 244 245 245 246 249 250 251 252 255 258 261 263 264 264 264 266 267 269 270 270 271 271 272 271 271 271 271 271 271 270 269 268 268 268 270 272 274 277 279 282 284 287 290 291 292 293 293 293 296 299 301 301 302 302 303 303 304 305 306 307 308 308 308 308 308 309 310 312 313 314 314 315 315 316 316 317 318 319 321 322 322 323 323
238 239 243 246 247 247 249 251 251 253 255 258 260 262 263 263 264 266 268 269 270 271 271 271 271 271 271 271 271 271 271 270 269 268 267 268 269 271 273 276 279 281 283 286 288 290 291 293 294 295 297 298 299 300 300 300 302 302 303 304 305 306 307 307 307 307 308 310 311 312 313 314 314 315 315 316 316 317 318 320 322 322 322 323 323
241 241 245 249 251 251 251 252 253 254 255 256 258 260 261 262 264 266 268 269 270 270 271 271 270 270 271 271 271 271 271 270 269 268 267 267 268 270 272 275 278 280 282 284 287 289 292 294 296 296 296 295 296 296 297 298 300 302 302 304 305 306 306 306 307 307 309 310 310 311 313 314 314 315 315 316 316 317 319 321 322 322 322 323 324
246 247 248 250 252 253 253 253 254 255 256 257 259 260 261 263 264 266 267 268 269 270 271 271 271 271 271 272 272 272 271 270 269 268 267 267 268 270 272 275 277 278 280 282 285 288 290 292 293 292 292 292 293 294 296 298 299 301 302 303 304 305 306 306 307 308 309 310 310 311 313 313 314 315 315 316 316 318 319 321 322 322 322 323 324
252 251 251 250 251 253 253 254 255 257 258 259 259 260 261 262 264 265 267 268 269 270 271 271 272 272 272 272 272 272 271 270 268 267 266 266 267 269 271 274 275 276 278 281 283 286 288 289 290 290 290 291 292 293 295 297 299 300 302 303 304 305 305 306 307 308 309 309 310 311 312 313 314 314 315 316 317 318 320 321 322 321 322 323 323
256 252 251 250 250 251 253 254 255 256 258 258 259 260 261 262 264 265 266 268 269 270 271 272 272 272 272 272 272 272 271 269 267 266 265 266 267 268 271 272 274 275 278 279 281 284 287 288 289 290 290 291 293 294 295 296 298 300 301 302 303 305 306 306 307 308 309 309 310 311 312 312 313 314 315 316 317 318 320 321 321 321 321 322 322
255 253 251 250 250 251 252 253 254 255 257 258 260 261 261 262 263 265 266 268 269 270 271 271 272 273 273 273 273 272 270 268 266 265 265 265 266 268 270 272 273 275 276 278 281 284 287 288 290 291 291 292 293 293 295 297 299 300 301 302 304 305 306 306 307 308 309 309 310 310 311 312 313 314 316 317 318 318 320 321 321 320 321 321 321
252 251 250 250 250 250 251 252 254 255 257 258 260 261 262 262 263 264 266 267 269 270 271 271 272 273 274 274 273 272 269 267 265 264 265 266 267 268 270 272 273 274 276 278 282 285 286 288 290 291 291 292 293 294 295 297 299 300 301 303 304 305 306 306 307 308 309 309 310 310 311 312 313 315 316 317 317 318 319 320 319 319 319 320 320
248 248 249 250 250 250 250 251 252 253 255 258 259 260 260 260 261 263 265 267 269 270 271 272 273 274 274 274 273 271 268 265 264 264 264 265 266 268 270 272 273 275 277 280 283 284 286 288 290 291 292 292 293 294 296 298 299 301 302 303 304 305 306 307 307 308 308 309 309 310 311 312 314 315 316 316 316 317 318 319 318 318 318 319 320
244 246 248 249 250 250 251 252 253 253 253 254 257 260 261 259 260 262 265 267 269 270 271 272 273 273 274 274 272 269 266 265 264 264 264 265 266 268 269 272 273 276 278 281 283 284 286 289 290 291 292 292 293 295 296 298 300 301 302 303 304 305 305 306 306 307 308 308 309 310 311 312 313 314 315 315 315 316 317 317 316 316 317 318 319
Height
10749 10755 10760 10764 10769 10772 10772 10772 10776 10778 10779 10780 10780 10780 10780 10781 10783 10785 10786 10788 10790 10791 10792 10793 10794 10794 10794 10795 10796 10796 10795 10794 10793 10793 10792 10792 10792 10790 10788 10787 10787 10787 10786 10784 10779 10775 10772 10771 10770 10769 10767 10765 10762 10759 10756 10753 10750 10747 10745 10742 10741 10738 10736 10734 10733 10730 10728 10727 10725 10722 10719 10716 10714 10711 10708 10705 10702 10698 10695 10691 10687 10683 10679 10676 10672
10748 10751 10754 10760 10764 10767 10768 10770 10772 10774 10775 10776 10775 10774 10775 10777 10779 10780 10783 10785 10786 10787 10788 10789 10789 10789 10790 10791 10792 10791 10790 10790 10790 10789 10788 10788 10788 10787 10785 10784 10783 10782 10782 10781 10779 10776 10773 10770 10769 10767 10764 10761 10758 10755 10752 10749 10746 10743 10741 10739 10737 10735 10733 10731 10730 10727 10724 10722 10720 10717 10714 10711 10709 10706 10702 10699 10696 10692 10689 10685 10681 10678 10673 10669 10666
10747 10747 10749 10754 10758 10761 10764 10765 10767 10769 10771 10771 10770 10770 10771 10773 10774 10776 10779 10781 10781 10783 10785 10785 10786 10785 10786 10786 10787 10787 10786 10786 10785 10785 10785 10784 10784 10783 10782 10780 10779 10778 10777 10776 10775 10772 10770 10767 10765 10762 10759 10756 10753 10750 10747 10744 10742 10739 10737 10735 10734 10732 10729 10727 10725 10723 10720 10718 10715 10713 10710 10706 10704 10702 10697 10694 10691 10687 10683 10679 10675 10671 10667 10663 10659
10742 10744 10746 10749 10750 10755 10759 10760 10762 10765 10766 10766 10765 10766 10767 10768 10770 10773 10775 10776 10778 10780 10781 10781 10781 10781 10781 10782 10783 10782 10782 10782 10781 10781 10780 10780 10780 10779 10778 10777 10776 10774 10772 10771 10769 10767 10765 10762 10760 10757 10754 10751 10747 10745 10742 10740 10737 10735 10733 10732 10730 10728 10726 10723 10721 10719 10717 10714 10711 10708 10704 10701 10698 10696 10692 10688 10685 10680 10676 10673 10669 10665 10661 10657 10654
10736 10740 10745 10745 10743 10748 10753 10755 10757 10759 10760 10760 10760 10762 10763 10763 10766 10769 10771 10773 10774 10776 10777 10776 10777 10777 10778 10778 10778 10778 10778 10777 10777 10777 10776 10776 10775 10774 10774 10773 10772 10771 10769 10767 10765 10762 10760 10757 10755 10752 10749 10746 10743 10740 10738 10735 10733 10731 10729 10728 10726 10724 10722 10719 10717 10715 10712 10710 10708 10704 10700 10696 10693 10689 10685 10681 10677 10674 10670 10666 10662 10659 10655 10651 10647
10732 10734 10740 10740 10737 10742 10748 10750 10751 10753 10755 10755 10756 10759 10760 10760 10762 10766 10768 10769 10769 10771 10771 10772 10772 10773 10774 10774 10773 10773 10774 10773 10772 10772 10772 10771 10770 10770 10769 10768 10767 10767 10765 10763 10761 10758 10755 10752 10750 10747 10744 10742 10739 10736 10734 10731 10729 10727 10725 10723 10721 10719 10717 10715 10713 10710 10708 10705 10703 10701 10697 10693 10689 10685 10681 10676 10671 10667 10664 10661 10656 10652 10649 10645 10641
10729 10728 10733 10733 10731 10737 10743 10745 10746 10747 10749 10750 10753 10756 10756 10756 10759 10762 10764 10764 10765 10766 10766 10767 10768 10768 10769 10769 10768 10768 10769 10769 10768 10768 10767 10767 10766 10765 10764 10763 10762 10761 10760 10758 10756 10753 10750 10747 10745 10743 10740 10737 10735 10732 10730 10727 10725 10723 10721 10719 10717 10715 10713 10710 10708 10705 10703 10700 10698 10695 10693 10689 10685 10682 10678 10673 10667 10661 10657 10655 10652 10647 10643 10639 10635
10727 10725 10727 10725 10726 10734 10738 10739 10741 10743 10745 10746 10750 10752 10751 10752 10756 10758 10759 10760 10761 10762 10762 10763 10764 10764 10764 10764 10764 10764 10764 10764 10764 10763 10763 10762 10762 10761 10759 10758 10757 10756 10754 10752 10750 10748 10745 10742 10740 10738 10736 10733 10731 10728 10726 10723 10721 10719 10717 10715 10713 10710 10708 10706 10703 10700 10697 10694 10692 10689 10686 10683 10680 10677 10673 10669 10665 10658 10651 10646 10644 10641 10637 10634 10630
10723 10721 10721 10720 10723 10730 10732 10734 10737 10740 10740 10741 10746 10748 10747 10748 10751 10753 10754 10755 10756 10757 10758 10758 10759 10758 10758 10759 10759 10759 10758 10759 10759 10757 10757 10757 10756 10756 10754 10752 10751 10750 10748 10746 10744 10742 10739 10737 10735 10733 10731 10729 10726 10724 10721 10719 10717 10715 10712 10710 10708 10706 10703 10700 10698 10695 10692 10689 10685 10682 10680 10677 10673 10670 10666 10663 10660 10657 10650 10643 10638 10633 10628 10625 10624
10715 10716 10716 10718 10721 10725 10727 10730 10734 10736 10735 10737 10741 10742 10742 10743 10745 10747 10749 10750 10751 10752 10753 10753 10753 10752 10753 10754 10754 10753 10753 10754 10754 10752 10752 10752 10751 10750 10748 10746 10745 10744 10742 10740 10738 10736 10734 10732 10730 10728 10726 10724 10722 10719 10717 10715 10712 10710 10708 10705 10703 10700 10698 10695 10692 10689 10686 10683 10679 10676 10673 10670 10666 10662 10659 10656 10652 10650 10647 10643 10637 10632 10625 10617 10613
10707 10710 10712 10716 10720 10720 10723 10726 10730 10730 10729 10733 10737 10736 10738 10739 10740 10742 10744 10745 10746 10747 10748 10748 10747 10747 10748 10749 10748 10748 10749 10749 10748 10747 10747 10747 10745 10744 10743 10741 10739 10738 10736 10734 10733 10730 10728 10727 10725 10723 10721 10719 10717 10714 10712 10710 10707 10705 10703 10700 10698 10695 10692 10690 10687 10683 10680 10676 10673 10670 10666 10662 10659 10655 10651 10648 10645 10641 10639 10636 10632 10628 10624 10617 10609
10700 10704 10707 10713 10716 10716 10718 10721 10724 10724 10724 10729 10731 10731 10734 10735 10736 10738 10739 10741 10742 10741 10742 10741 10741 10742 10743 10744 10743 10743 10744 10744 10743 10742 10742 10741 10740 10739 10737 10735 10734 10732 10730 10729 10727 10725 10723 10722 10720 10717 10715 10713 10711 10709 10707 10705 10702 10700 10698 10695 10693 10690 10687 10684 10681 10677 10674 10670 10667 10663 10660 10656 10652 10649 10645 10641 10637 10634 10630 10627 10623 10619 10617 10614 10609
10694 10699 10704 10710 10711 10711 10712 10715 10718 10718 10719 10724 10727 10727 10729 10731 10732 10733 10734 10736 10737 10736 10736 10735 10735 10737 10738 10738 10738 10738 10739 10739 10738 10737 10736 10736 10735 10733 10731 10729 10728 10727 10725 10723 10721 10719 10717 10716 10714 10712 10710 10708 10706 10703 10701 10699 10697 10695 10693 10690 10688 10685 10682 10678 10675 10672 10668 10665 10661 10658 10654 10650 10646 10642 10639 10635 10630 10627 10623 10619 10615 10611 10607 10604 10603
10690 10696 10701 10706 10706 10706 10706 10709 10714 10712 10713 10719 10722 10723 10724 10726 10728 10729 10730 10731 10731 10731 10731 10730 10731 10732 10733 10734 10733 10733 10733 10733 10733 10732 10731 10730 10729 10727 10725 10724 10722 10721 10719 10718 10715 10713 10712 10710 10708 10706 10704 10702 10700 10698 10696 10694 10692 10690 10687 10685 10682 10679 10676 10673 10669 10666 10662 10659 10655 10652 10648 10644 10641 10636 10632 10628 10624 10620 10617 10613 10608 10604 10599 10594 10592
10688 10693 10698 10699 10698 10699 10700 10705 10709 10706 10708 10714 10717 10718 10719 10721 10723 10724 10724 10724 10725 10726 10726 10726 10727 10728 10729 10729 10729 10729 10728 10727 10727 10726 10725 10724 10723 10722 10720 10718 10717 10716 10714 10712 10710 10708 10706 10704 10702 10701 10699 10697 10695 10693 10691 10689 10687 10684 10682 10679 10676 10673 10670 10667 10664 10660 10657 10653 10649 10646 10642 10638 10635 10631 10626 10622 10618 10615 10610 10606 10602 10598 10593 10588 10582
10684 10688 10692 10692 10690 10693 10696 10701 10703 10700 10703 10709 10710 10712 10713 10715 10718 10718 10718 10718 10720 10721 10722 10722 10723 10723 10724 10724 10724 10723 10722 10722 10721 10720 10719 10718 10717 10716 10714 10713 10711 10710 10708 10707 10705 10703 10701 10699 10697 10695 10693 10692 10690 10688 10686 10683 10681 10679 10676 10674 10671 10668 10665 10661 10658 10654 10651 10647 10644 10640 10637 10633 10629 10625 10621 10617 10613 10609 10604 10600 10596 10592 10588 10583 10577
10678 10682 10686 10685 10684 10687 10691 10696 10698 10696 10698 10702 10705 10707 10707 10709 10711 10712 10713 10713 10715 10717 10718 10717 10717 10718 10719 10719 10719 10718 10717 10717 10716 10714 10713 10712 10711 10710 10708 10707 10705 10704 10703 10701 10699 10697 10695 10694 10692 10690 10688 10686 10685 10683 10680 10678 10676 10674 10671 10668 10665 10663 10659 10656 10652 10649 10645 10642 10639 10635 10631 10627 10623 10619 10615 10611 10607 10602 10598 10594 10590 10586 10582 10577 10572
10674 10679 10681 10679 10679 10681 10686 10690 10691 10690 10692 10697 10701 10702 10702 10702 10704 10707 10709 10709 10710 10712 10713 10712 10711 10713 10713 10713 10713 10712 10711 10711 10710 10709 10707 10706 10705 10704 10702 10701 10699 10698 10697 10695 10694 10692 10690 10688 10687 10685 10683 10681 10679 10677 10675 10673 10671 10668 10666 10663 10660 10657 10654 10650 10647 10644 10640 10637 10633 10630 10626 10622 10618 10614 10609 10605 10601 10597 10592 10588 10584 10579 10575 10570 10565
10669 10676 10676 10673 10672 10675 10679 10683 10684 10685 10689 10692 10695 10696 10696 10697 10699 10702 10704 10704 10705 10706 10707 10707 10706 10707 10707 10707 10707 10707 10706 10705 10704 10703 10702 10701 10699 10698 10697 10695 10693 10692 10691 10690 10688 10686 10685 10683 10681 10680 10678 10676 10674 10672 10670 10668 10665 10663 10660 10658 10655 10652 10649 10645 10642 10638 10635 10632 10628 10624 10621 10617 10612 10608 10604 10600 10595 10591 10587 10582 10578 10573 10569 10564 10558
10664 10671 10670 10665 10664 10667 10672 10676 10680 10683 10685 10687 10689 10691 10692 10693 10694 10696 10698 10699 10699 10700 10701 10701 10701 10701 10701 10700 10701 10700 10700 10699 10698 10697 10696 10695 10693 10691 10690 10690 10688 10687 10685 10685 10683 10681 10680 10678 10676 10675 10673 10670 10668 10666 10664 10662 10660 10658 10655 10652 10649 10646 10643 10640 10637 10633 10630 10626 10623 10619 10615 10611 10607 10603 10599 10594 10590 10585 10581 10576 10572 10567 10562 10557 10551
10659 10665 10663 10658 10658 10661 10666 10672 10677 10679 10681 10682 10683 10685 10687 10687 10687 10690 10693 10694 10694 10693 10694 10695 10695 10695 10695 10695 10695 10694 10693 10693 10692 10691 10690 10689 10687 10686 10685 10684 10684 10682 10681 10680 10678 10676 10675 10673 10671 10669 10667 10665 10663 10661 10659 10657 10655 10652 10650 10647 10644 10641 10638 10635 10631 10628 10625 10621 10618 10614 10610 10606 10602 10598 10593 10589 10584 10579 10574 10570 10565 10560 10555 10550 10544
10654 10658 10656 10654 10654 10657 10663 10669 10673 10675 10676 10676 10676 10678 10680 10680 10681 10684 10688 10689 10687 10687 10688 10689 10689 10689 10689 10689 10688 10687 10686 10686 10686 10685 10684 10683 10682 10681 10680 10679 10678 10678 10676 10675 10673 10672 10670 10668 10666 10664 10662 10660 10658 10656 10654 10652 10650 10647 10645 10642 10639 10636 10633 10629 10626 10623 10620 10616 10613 10609 10605 10601 10597 10592 10588 10583 10578 10573 10569 10564 10559 10554 10549 10543 10538
10650 10651 10650 10651 10652 10655 10659 10664 10668 10670 10671 10671 10671 10671 10673 10675 10675 10677 10680 10682 10681 10681 10682 10683 10683 10683 10684 10683 10682 10682 10681 10680 10679 10679 10679 10678 10677 10676 10676 10674 10673 10673 10671 10670 10668 10666 10665 10663 10661 10659 10657 10655 10653 10651 10649 10647 10645 10642 10639 10636 10633 10630 10627 10624 10621 10618 10615 10611 10608 10604 10600 10596 10591 10587 10582 10577 10573 10568 10563 10558 10553 10548 10543 10537 10532
10644 10645 10646 10649 10651 10652 10656 10659 10661 10663 10664 10665 10666 10666 10667 10669 10669 10670 10673 10675 10675 10675 10676 10677 10677 10677 10678 10678 10677 10676 10676 10675 10674 10674 10674 10673 10672 10672 10671 10669 10668 10667 10666 10665 10663 10662 10660 10658 10656 10654 10653 10650 10648 10646 10644 10642 10639 10637 10634 10631 10628 10625 10622 10619 10616 10613 10610 10606 10602 10599 10595 10590 10586 10581 10577 10572 10567 10562 10558 10553 10548 10542 10537 10532 10526
10638 10640 10642 10646 10648 10648 10650 10652 10654 10656 10658 10659 10660 10661 10662 10663 10664 10664 10667 10669 10670 10670 10670 10670 10671 10672 10672 10672 10672 10671 10671 10670 10669 10669 10669 10668 10668 10666 10665 10664 10663 10662 10661 10660 10659 10657 10655 10653 10652 10650 10648 10645 10643 10641 10638 10636 10634 10631 10628 10625 10623 10620 10617 10615 10612 10608 10605 10601 10597 10593 10589 10585 10580 10576 10571 10566 10562 10557 10553 10548 10542 10537 10531 10526 10521
10632 10635 10637 10640 10641 10642 10643 10646 10648 10650 10652 10653 10655 10656 10657 10658 10659 10660 10662 10663 10664 10664 10665 10665 10665 10666 10667 10666 10666 10666 10666 10665 10664 10664 10664 10663 10662 10661 10660 10659 10658 10657 10657 10655 10654 10652 10650 10649 10647 10645 10643 10640 10638 10635 10633 10630 10628 10625 10623 10620 10617 10615 10612 10610 10607 10603 10599 10595 10591 10587 10583 10579 10574 10570 10566 10561 10557 10552 10547 10542 10537 10531 10526 10520 10515
10627 10631 10633 10634 10635 10636 10638 10641 10643 10644 10646 10648 10649 10651 10652 10654 10654 10655 10657 10658 10659 10660 10660 10660 10659 10661 10661 10661 10661 10661 10660 10660 10659 10659 10659 10658 10657 10655 10655 10654 10653 10653 10652 10651 10649 10647 10646 10645 10643 10640 10638 10635 10632 10629 10627 10625 10622 10620 10617 10614 10612 10610 10608 10605 10601 10598 10594 10590 10586 10582 10578 10573 10569 10565 10561 10556 10552 10547 10542 10537 10531 10526 10521 10515 10509
10622 10628 10629 10629 10631 10631 10633 10636 10639 10640 10642 10643 10644 10646 10647 10648 10649 10650 10653 10653 10654 10655 10655 10655 10654 10655 10656 10656 10656 10656 10655 10654 10654 10654 10654 10653 10652 10650 10650 10649 10648 10648 10647 10646 10643 10642 10642 10641 10638 10636 10633 10629 10627 10624 10621 10618 10617 10615 10612 10609 10607 10604 10602 10599 10596 10592 10588 10585 10581 10577 10573 10569 10564 10560 10555 10551 10546 10541 10536 10531 10526 10521 10516 10510 10504
10617 10624 10624 10625 10627 10627 10629 10633 10635 10637 10637 10638 10640 10641 10642 10642 10644 10646 10648 10648 10649 10650 10650 10650 10650 10650 10651 10651 10650 10651 10650 10650 10649 10649 10649 10649 10647 10646 10645 10645 10644 10643 10643 10641 10639 10639 10638 10636 10633 10631 10628 10624 10621 10619 10616 10613 10612 10610 10607 10604 10601 10598 10596 10593 10590 10587 10584 10580 10576 10572 10568 10564 10559 10555 10550 10545 10541 10535 10530 10525 10520 10515 10510 10504 10498
10612 10617 10619 10621 10623 10624 10626 10629 10631 10632 10632 10634 10636 10636 10636 10637 10639 10642 10643 10643 10644 10645 10646 10646 10645 10645 10646 10646 10645 10646 10646 10645 10645 10645 10645 10644 10643 10641 10640 10640 10639 10639 10638 10636 10635 10635 10633 10631 10629 10626 10623 10620 10616 10614 10613 10610 10607 10606 10603 10601 10598 10595 10592 10589 10586 10583 10579 10575 10571 10567 10563 10559 10554 10550 10545 10540 10535 10530 10525 10520 10515 10510 10504 10499 10493
10608 10610 10614 10617 10619 10620 10622 10624 10625 10626 10628 10630 10632 10631 10631 10633 10635 10637 10638 10638 10639 10640 10641 10641 10640 10640 10641 10641 10641 10641 10641 10641 10641 10640 10640 10640 10639 10637 10636 10635 10635 10634 10633 10631 10631 10630 10629 10627 10625 10621 10618 10615 10612 10611 10609 10607 10605 10603 10600 10598 10595 10592 10589 10585 10582 10578 10575 10570 10566 10562 10558 10554 10549 10545 10540 10535 10529 10524 10519 10514 10509 10504 10498 10492 10487
10605 10606 10609 10612 10614 10615 10616 10617 10619 10621 10624 10625 10626 10626 10627 10629 10631 10632 10633 10633 10633 10634 10635 10636 10635 10635 10635 10636 10636 10637 10637 10637 10636 10636 10636 10635 10634 10633 10631 10631 10630 10629 10628 10627 10626 10626 10624 10623 10622 10619 10613 10609 10608 10608 10605 10603 10601 10599 10597 10594 10591 10587 10584 10581 10577 10574 10570 10566 10562 10557 10553 10549 10544 10540 10535 10529 10524 10519 10513 10508 10503 10497 10491 10486 10481
10601 10602 10604 10607 10608 10609 10609 10611 10614 10616 10618 10619 10620 10621 10622 10624 10626 10627 10628 10628 10628 10628 10630 10630 10630 10629 10630 10631 10632 10632 10633 10632 10631 10631 10631 10630 10629 10628 10627 10627 10626 10625 10623 10622 10621 10621 10620 10618 10617 10615 10611 10606 10604 10604 10601 10599 10597 10595 10592 10589 10586 10583 10579 10576 10573 10569 10565 10561 10557 10552 10548 10543 10539 10534 10529 10524 10519 10514 10508 10503 10498 10492 10485 10479 10473
10597 10599 10601 10601 10602 10603 10604 10607 10608 10610 10612 10613 10614 10616 10617 10619 10620 10621 10622 10622 10623 10623 10624 10625 10624 10624 10625 10627 10627 10627 10627 10627 10626 10626 10626 10625 10624 10622 10622 10621 10621 10620 10618 10617 10616 10616 10615 10613 10611 10610 10607 10603 10601 10599 10596 10594 10592 10590 10587 10584 10580 10578 10574 10571 10568 10564 10560 10556 10552 10547 10543 10538 10533 10529 10524 10519 10514 10508 10503 10498 10493 10486 10480 10473 10466
10593 10595 10596 10597 10597 10598 10600 10602 10603 10604 10607 10608 10609 10611 10613 10614 10615 10615 10615 10616 10618 10618 10619 10619 10619 10619 10620 10621 10621 10621 10621 10620 10621 10621 10621 10620 10619 10617 10617 10616 10615 10615 10613 10612 10611 10610 10609 10608 10606 10605 10602 10599 10597 10595 10592 10589 10587 10584 10582 10579 10575 10573 10569 10566 10562 10558 10555 10551 10546 10542 10537 10532 10528 10523 10519 10514 10508 10503 10498 10493 10487 10481 10475 10469 10462
10586 10588 10591 10592 10592 10592 10593 10596 10597 10599 10601 10603 10603 10606 10608 10609 10609 10609 10610 10611 10613 10613 10613 10613 10612 10613 10615 10615 10615 10615 10615 10614 10615 10616 10615 10614 10613 10612 10611 10610 10610 10610 10608 10607 10606 10605 10604 10602 10601 10599 10596 10593 10592 10589 10586 10583 10581 10579 10577 10574 10570 10567 10564 10560 10557 10553 10549 10545 10541 10536 10531 10527 10522 10518 10513 10508 10503 10498 10493 10487 10482 10476 10470 10463 10456
10581 10584 10586 10586 10585 10584 10587 10589 10591 10594 10596 10598 10599 10601 10603 10603 10603 10603 10605 10606 10607 10607 10607 10607 10607 10608 10609 10609 10609 10609 10609 10608 10609 10610 10609 10608 10608 10607 10606 10606 10605 10603 10602 10602 10601 10599 10598 10596 10595 10593 10590 10587 10586 10583 10580 10577 10575 10573 10571 10568 10564 10561 10558 10555 10551 10547 10543 10539 10534 10530 10525 10521 10516 10512 10507 10502 10497 10492 10486 10481 10476 10470 10464 10457 10450
10576 10579 10580 10579 10578 10579 10581 10583 10586 10589 10591 10593 10595 10596 10597 10597 10597 10598 10599 10600 10601 10601 10601 10601 10601 10602 10602 10603 10603 10603 10603 10603 10604 10604 10603 10602 10602 10601 10600 10600 10600 10598 10597 10597 10595 10594 10593 10591 10589 10587 10584 10581 10579 10577 10574 10571 10569 10566 10564 10562 10559 10556 10553 10549 10545 10541 10536 10532 10528 10524 10519 10515 10510 10506 10501 10496 10491 10486 10480 10475 10469 10463 10458 10451 10443
10570 10572 10574 10574 10574 10574 10576 10579 10581 10584 10586 10588 10590 10590 10590 10591 10591 10592 10593 10594 10594 10595 10595 10596 10596 10596 10596 10597 10597 10597 10597 10598 10598 10598 10597 10597 10596 10595 10594 10594 10593 10593 10593 10592 10590 10589 10587 10585 10583 10580 10577 10574 10572 10571 10569 10566 10563 10560 10558 10556 10554 10550 10547 10543 10539 10535 10530 10526 10522 10518 10514 10509 10504 10500 10495 10490 10484 10479 10474 10469 10463 10457 10451 10444 10437
10563 10565 10568 10569 10569 10570 10571 10574 10577 10579 10581 10583 10583 10584 10585 10585 10586 10586 10587 10588 10588 10589 10590 10590 10590 10590 10590 10591 10591 10591 10591 10592 10592 10592 10591 10591 10590 10589 10589 10588 10588 10587 10587 10586 10585 10584 10581 10578 10576 10573 10570 10567 10566 10566 10563 10561 10558 10553 10551 10550 10548 10544 10541 10537 10533 10528 10523 10519 10515 10511 10508 10503 10498 10493 10488 10483 10478 10473 10468 10463 10457 10451 10444 10437 10431
10556 10557 10560 10561 10562 10564 10566 10569 10572 10574 10575 10576 10577 10578 10579 10580 10580 10581 10581 10582 10583 10583 10584 10584 10584 10584 10584 10585 10585 10585 10585 10586 10586 10586 10585 10585 10585 10584 10583 10583 10582 10582 10581 10581 10580 10578 10575 10572 10569 10565 10563 10561 10561 10559 10558 10556 10552 10547 10544 10542 10540 10537 10534 10530 10526 10522 10517 10513 10508 10505 10502 10497 10491 10487 10482 10477 10472 10466 10461 10457 10451 10444 10438 10431 10425
10549 10550 10552 10554 10556 10559 10562 10564 10566 10567 10568 10569 10571 10571 10572 10574 10575 10575 10575 10576 10577 10577 10577 10578 10578 10578 10578 10578 10578 10579 10579 10580 10580 10580 10579 10579 10579 10578 10577 10577 10577 10577 10576 10576 10575 10572 10569 10567 10565 10561 10557 10555 10554 10553 10551 10549 10547 10543 10539 10536 10534 10531 10527 10524 10520 10515 10511 10507 10502 10498 10495 10490 10485 10480 10476 10470 10465 10460 10455 10451 10445 10438 10432 10425 10419
10544 10545 10547 10549 10551 10554 10556 10558 10560 10561 10562 10563 10564 10565 10566 10568 10568 10569 10570 10571 10571 10570 10571 10572 10572 10572 10572 10572 10573 10573 10573 10574 10574 10573 10573 10573 10572 10572 10572 10572 10572 10572 10571 10571 10569 10565 10563 10561 10560 10557 10554 10551 10549 10547 10545 10543 10541 10538 10535 10531 10528 10525 10521 10517 10513 10509 10505 10501 10496 10491 10488 10483 10478 10474 10469 10464 10459 10454 10449 10444 10438 10432 10426 10420 10414
10539 10541 10544 10545 10546 10548 10551 10552 10554 10555 10556 10557 10558 10559 10560 10561 10562 10563 10564 10564 10564 10564 10565 10565 10566 10566 10566 10567 10567 10567 10567 10568 10567 10567 10567 10567 10566 10566 10566 10567 10567 10566 10566 10565 10563 10561 10558 10555 10553 10552 10549 10546 10545 10543 10540 10538 10536 10533 10529 10526 10523 10519 10515 10511 10507 10503 10499 10495 10489 10485 10481 10477 10472 10467 10462 10458 10453 10447 10443 10438 10432 10426 10420 10414 10409
10536 10538 10539 10540 10541 10542 10544 10546 10547 10548 10549 10551 10552 10553 10554 10555 10556 10557 10558 10558 10558 10558 10558 10559 10559 10560 10561 10561 10561 10561 10562 10561 10561 10561 10561 10560 10560 10560 10560 10561 10562 10561 10560 10560 10559 10557 10555 10552 10549 10547 10545 10542 10540 10538 10536 10533 10530 10527 10524 10520 10517 10513 10509 10505 10501 10497 10493 10488 10483 10478 10474 10470 10466 10461 10456 10451 10446 10441 10436 10432 10426 10420 10414 10409 10404
10532 10532 10532 10533 10535 10536 10538 10540 10540 10541 10543 10544 10546 10547 10548 10549 10550 10551 10551 10551 10552 10552 10552 10552 10553 10554 10555 10555 10555 10555 10556 10555 10555 10554 10554 10554 10554 10554 10554 10555 10555 10555 10554 10555 10554 10552 10551 10548 10546 10543 10540 10537 10535 10533 10531 10528 10525 10522 10518 10514 10511 10507 10503 10499 10495 10491 10487 10482 10477 10472 10468 10464 10460 10455 10450 10445 10439 10434 10430 10425 10420 10414 10408 10404 10399
10523 10524 10525 10526 10528 10530 10532 10533 10533 10534 10536 10538 10539 10540 10541 10542 10544 10544 10545 10545 10546 10545 10546 10546 10546 10547 10548 10549 10549 10549 10549 10549 10548 10548 10548 10548 10548 10548 10548 10549 10549 10549 10549 10548 10548 10547 10545 10543 10541 10538 10535 10532 10530 10528 10525 10523 10520 10516 10512 10508 10504 10500 10497 10493 10489 10485 10480 10475 10470 10466 10461 10457 10453 10449 10444 10438 10433 10427 10423 10419 10414 10408 10403 10399 10395
10515 10514 10517 10519 10522 10524 10526 10527 10527 10527 10529 10531 10532 10533 10535 10536 10537 10537 10539 10540 10539 10539 10540 10540 10540 10541 10541 10542 10542 10542 10542 10541 10541 10541 10541 10542 10542 10542 10543 10542 10542 10542 10542 10542 10541 10541 10539 10537 10535 10532 10529 10526 10524 10521 10519 10517 10514 10510 10505 10501 10497 10493 10490 10486 10482 10478 10473 10468 10464 10459 10455 10451 10447 10442 10437 10432 10426 10421 10417 10413 10408 10403 10398 10394 10390
10510 10508 10511 10515 10517 10518 10519 10519 10519 10520 10522 10524 10525 10526 10528 10529 10530 10531 10533 10533 10532 10533 10535 10534 10534 10535 10535 10535 10536 10535 10534 10534 10534 10534 10534 10535 10536 10536 10536 10536 10536 10535 10535 10535 10534 10534 10532 10531 10529 10526 10523 10520 10517 10514 10512 10510 10507 10503 10498 10494 10490 10486 10482 10479 10475 10471 10466 10461 10457 10453 10449 10445 10440 10436 10431 10425 10420 10415 10411 10407 10403 10398 10394 10390 10386
10506 10503 10507 10511 10512 10510 10510 10511 10512 10514 10515 10516 10517 10519 10521 10522 10523 10525 10527 10527 10526 10527 10529 10528 10528 10529 10528 10528 10528 10528 10527 10527 10527 10527 10528 10528 10529 10530 10530 10529 10528 10528 10528 10528 10527 10526 10525 10524 10523 10520 10516 10512 10510 10508 10504 10503 10500 10495 10490 10486 10482 10479 10475 10472 10468 10464 10459 10455 10450 10446 10442 10438 10434 10429 10425 10420 10414 10410 10406 10402 10397 10392 10389 10385 10381
10500 10498 10502 10505 10505 10503 10503 10505 10506 10507 10508 10509 10511 10512 10514 10515 10516 10519 10520 10520 10520 10521 10523 10523 10522 10522 10522 10522 10522 10520 10519 10519 10520 10521 10522 10521 10522 10523 10523 10522 10521 10521 10521 10521 10520 10518 10518 10518 10516 10513 10508 10505 10503 10501 10497 10495 10493 10488 10483 10479 10475 10472 10469 10465 10461 10457 10453 10448 10444 10440 10436 10432 10428 10423 10419 10414 10409 10405 10401 10397 10392 10388 10384 10381 10377